Time,TemperatureF,DewpointF,PressureIn,WindDirection,WindDirectionDegrees,WindSpeedMPH,WindSpeedGustMPH,Humidity,HourlyPrecipIn,Conditions,Clouds,dailyrainin,SoftwareType,DateUTC
2013-01-26 00:14:00,43.7,37.0,30.28,NE,44,6.0,-999.0,77,-99.99,,,0.00,weatherlink.com 1.10,2013-01-26 06:14:00,
2013-01-26 00:29:00,43.4,37.0,30.27,NE,46,8.0,-999.0,78,-99.99,,,0.00,weatherlink.com 1.10,2013-01-26 06:29:00,
2013-01-26 00:43:00,43.1,37.0,30.28,NE,48,12.0,-999.0,78,-99.99,,,0.00,weatherlink.com 1.10,2013-01-26 06:43:00,
2013-01-26 00:58:00,43.3,37.0,30.28,NE,49,7.0,-999.0,77,-99.99,,,0.00,weatherlink.com 1.10,2013-01-26 06:58:00,
2013-01-26 01:14:00,42.5,36.0,30.28,NE,50,7.0,-999.0,79,-99.99,,,0.00,weatherlink.com 1.10,2013-01-26 07:14:00,
2013-01-26 01:28:00,42.4,36.0,30.27,ENE,59,11.0,-999.0,78,-99.99,,,0.00,weatherlink.com 1.10,2013-01-26 07:28:00,
2013-01-26 01:43:00,42.2,35.0,30.28,ENE,58,8.0,-999.0,75,-99.99,,,0.00,weatherlink.com 1.10,2013-01-26 07:43:00,
2013-01-26 01:58:00,42.3,34.0,30.28,ENE,64,11.0,-999.0,71,-99.99,,,0.00,weatherlink.com 1.10,2013-01-26 07:58:00,
2013-01-26 02:13:00,41.8,33.0,30.28,ENE,60,14.0,-999.0,72,-99.99,,,0.00,weatherlink.com 1.10,2013-01-26 08:13:00,
2013-01-26 02:28:00,41.3,33.0,30.28,ENE,74,7.0,-999.0,73,-99.99,,,0.00,weatherlink.com 1.10,2013-01-26 08:28:00,
2013-01-26 02:44:00,41.8,34.0,30.29,ENE,77,11.0,-999.0,73,-99.99,,,0.00,weatherlink.com 1.10,2013-01-26 08:44:00,
2013-01-26 02:59:00,43.2,31.0,30.28,ENE,78,14.0,-999.0,63,-99.99,,,0.00,weatherlink.com 1.10,2013-01-26 08:59:00,
2013-01-26 03:13:00,43.4,29.0,30.28,East,80,11.0,-999.0,58,-99.99,,,0.00,weatherlink.com 1.10,2013-01-26 09:13:00,
2013-01-26 03:28:00,42.6,30.0,30.28,East,85,12.0,-999.0,62,-99.99,,,0.00,weatherlink.com 1.10,2013-01-26 09:28:00,
2013-01-26 03:43:00,42.3,30.0,30.27,ENE,76,15.0,-999.0,61,-99.99,,,0.00,weatherlink.com 1.10,2013-01-26 09:43:00,
2013-01-26 03:58:00,42.3,29.0,30.26,ENE,75,17.0,-999.0,59,-99.99,,,0.00,weatherlink.com 1.10,2013-01-26 09:58:00,
2013-01-26 04:13:00,42.8,28.0,30.25,ENE,78,19.0,-999.0,56,-99.99,,,0.00,weatherlink.com 1.10,2013-01-26 10:13:00,
2013-01-26 04:29:00,42.7,27.0,30.25,East,82,18.0,-999.0,55,-99.99,,,0.00,weatherlink.com 1.10,2013-01-26 10:29:00,
2013-01-26 04:43:00,43.2,26.0,30.25,East,80,18.0,-999.0,51,-99.99,,,0.00,weatherlink.com 1.10,2013-01-26 10:43:00,
2013-01-26 04:58:00,42.7,26.0,30.24,East,80,21.0,-999.0,53,-99.99,,,0.00,weatherlink.com 1.10,2013-01-26 10:58:00,
2013-01-26 05:13:00,42.1,26.0,30.24,ENE,74,20.0,-999.0,54,-99.99,,,0.00,weatherlink.com 1.10,2013-01-26 11:13:00,
2013-01-26 05:29:00,41.5,27.0,30.24,East,79,20.0,-999.0,56,-99.99,,,0.00,weatherlink.com 1.10,2013-01-26 11:29:00,
2013-01-26 05:44:00,41.3,26.0,30.25,ENE,76,19.0,-999.0,56,-99.99,,,0.00,weatherlink.com 1.10,2013-01-26 11:44:00,
2013-01-26 05:59:00,39.8,27.0,30.25,ENE,77,24.0,-999.0,61,-99.99,,,0.00,weatherlink.com 1.10,2013-01-26 11:59:00,
2013-01-26 06:14:00,40.2,26.0,30.26,East,86,20.0,-999.0,57,-99.99,,,0.00,weatherlink.com 1.10,2013-01-26 12:14:00,
2013-01-26 06:29:00,39.2,27.0,30.26,East,80,18.0,-999.0,63,-99.99,,,0.00,weatherlink.com 1.10,2013-01-26 12:29:00,
2013-01-26 06:44:00,37.9,29.0,30.28,East,98,18.0,-999.0,69,-99.99,,,0.00,weatherlink.com 1.10,2013-01-26 12:44:00,
2013-01-26 06:58:00,37.7,29.0,30.29,East,88,19.0,-999.0,71,-99.99,,,0.00,weatherlink.com 1.10,2013-01-26 12:58:00,
2013-01-26 07:13:00,38.1,28.0,30.29,ENE,76,12.0,-999.0,67,-99.99,,,0.00,weatherlink.com 1.10,2013-01-26 13:13:00,
2013-01-26 07:28:00,37.8,28.0,30.28,East,84,17.0,-999.0,69,-99.99,,,0.00,weatherlink.com 1.10,2013-01-26 13:28:00,
2013-01-26 07:43:00,37.7,28.0,30.29,East,79,17.0,-999.0,68,-99.99,,,0.00,weatherlink.com 1.10,2013-01-26 13:43:00,
2013-01-26 07:59:00,38.0,27.0,30.29,East,95,18.0,-999.0,65,-99.99,,,0.00,weatherlink.com 1.10,2013-01-26 13:59:00,
2013-01-26 08:14:00,38.3,27.0,30.29,East,94,11.0,-999.0,64,-99.99,,,0.00,weatherlink.com 1.10,2013-01-26 14:14:00,
2013-01-26 08:28:00,38.4,27.0,30.30,East,84,15.0,-999.0,64,-99.99,,,0.00,weatherlink.com 1.10,2013-01-26 14:28:00,
2013-01-26 08:43:00,38.4,28.0,30.31,ESE,114,12.0,-999.0,66,-99.99,,,0.00,weatherlink.com 1.10,2013-01-26 14:43:00,
2013-01-26 08:59:00,38.8,26.0,30.31,ESE,111,18.0,-999.0,61,-99.99,,,0.00,weatherlink.com 1.10,2013-01-26 14:59:00,
2013-01-26 09:14:00,38.6,26.0,30.31,SE,126,16.0,-999.0,62,-99.99,,,0.00,weatherlink.com 1.10,2013-01-26 15:14:00,
2013-01-26 09:28:00,38.7,27.0,30.31,East,84,13.0,-999.0,63,-99.99,,,0.00,weatherlink.com 1.10,2013-01-26 15:28:00,
2013-01-26 09:43:00,38.0,26.0,30.31,East,100,16.0,-999.0,62,-99.99,,,0.00,weatherlink.com 1.10,2013-01-26 15:43:00,
2013-01-26 09:59:00,37.7,26.0,30.32,ESE,109,16.0,-999.0,64,-99.99,,,0.00,weatherlink.com 1.10,2013-01-26 15:59:00,
2013-01-26 10:13:00,37.9,27.0,30.32,East,86,17.0,-999.0,64,-99.99,,,0.00,weatherlink.com 1.10,2013-01-26 16:13:00,
2013-01-26 10:29:00,38.0,27.0,30.32,East,89,18.0,-999.0,65,-99.99,,,0.00,weatherlink.com 1.10,2013-01-26 16:29:00,
2013-01-26 10:44:00,38.2,28.0,30.32,East,90,12.0,-999.0,67,-99.99,,,0.00,weatherlink.com 1.10,2013-01-26 16:44:00,
2013-01-26 10:58:00,38.4,27.0,30.32,ESE,111,8.0,-999.0,65,-99.99,,,0.00,weatherlink.com 1.10,2013-01-26 16:58:00,
2013-01-26 11:14:00,38.5,28.0,30.32,East,88,8.0,-999.0,66,-99.99,,,0.00,weatherlink.com 1.10,2013-01-26 17:14:00,
2013-01-26 11:29:00,39.3,28.0,30.31,East,86,7.0,-999.0,65,-99.99,,,0.00,weatherlink.com 1.10,2013-01-26 17:29:00,
2013-01-26 11:43:00,40.0,29.0,30.31,ESE,121,4.0,-999.0,64,-99.99,,,0.00,weatherlink.com 1.10,2013-01-26 17:43:00,
2013-01-26 11:58:00,40.1,28.0,30.30,East,92,15.0,-999.0,63,-99.99,,,0.00,weatherlink.com 1.10,2013-01-26 17:58:00,
2013-01-26 12:13:00,40.1,29.0,30.29,East,89,4.0,-999.0,64,-99.99,,,0.00,weatherlink.com 1.10,2013-01-26 18:13:00,
2013-01-26 12:29:00,40.2,29.0,30.29,ESE,104,7.0,-999.0,65,-99.99,,,0.00,weatherlink.com 1.10,2013-01-26 18:29:00,
2013-01-26 12:44:00,40.8,29.0,30.29,ESE,110,1.0,-999.0,63,-99.99,,,0.00,weatherlink.com 1.10,2013-01-26 18:44:00,
2013-01-26 12:58:00,41.3,29.0,30.28,ESE,105,8.0,-999.0,61,-99.99,,,0.00,weatherlink.com 1.10,2013-01-26 18:58:00,
2013-01-26 13:13:00,41.6,28.0,30.27,East,94,14.0,-999.0,60,-99.99,,,0.00,weatherlink.com 1.10,2013-01-26 19:13:00,
2013-01-26 13:29:00,41.8,29.0,30.26,ESE,109,8.0,-999.0,60,-99.99,,,0.00,weatherlink.com 1.10,2013-01-26 19:29:00,
2013-01-26 13:43:00,42.4,29.0,30.26,ESE,104,6.0,-999.0,60,-99.99,,,0.00,weatherlink.com 1.10,2013-01-26 19:43:00,
2013-01-26 13:59:00,43.3,29.0,30.25,East,99,6.0,-999.0,58,-99.99,,,0.00,weatherlink.com 1.10,2013-01-26 19:59:00,
2013-01-26 14:13:00,43.2,30.0,30.24,East,98,9.0,-999.0,59,-99.99,,,0.00,weatherlink.com 1.10,2013-01-26 20:13:00,
2013-01-26 14:28:00,43.4,29.0,30.24,East,88,13.0,-999.0,58,-99.99,,,0.00,weatherlink.com 1.10,2013-01-26 20:28:00,
2013-01-26 14:44:00,43.5,26.0,30.23,SE,135,2.0,-999.0,50,-99.99,,,0.00,weatherlink.com 1.10,2013-01-26 20:44:00,
2013-01-26 14:59:00,43.4,26.0,30.23,ESE,115,9.0,-999.0,51,-99.99,,,0.00,weatherlink.com 1.10,2013-01-26 20:59:00,
2013-01-26 15:13:00,43.1,26.0,30.23,East,98,7.0,-999.0,52,-99.99,,,0.00,weatherlink.com 1.10,2013-01-26 21:13:00,
2013-01-26 15:29:00,43.2,26.0,30.23,ESE,104,12.0,-999.0,52,-99.99,,,0.00,weatherlink.com 1.10,2013-01-26 21:29:00,
2013-01-26 15:43:00,43.4,27.0,30.23,ESE,105,5.0,-999.0,52,-99.99,,,0.00,weatherlink.com 1.10,2013-01-26 21:43:00,
2013-01-26 15:58:00,43.2,27.0,30.23,East,100,2.0,-999.0,54,-99.99,,,0.00,weatherlink.com 1.10,2013-01-26 21:58:00,
2013-01-26 16:13:00,43.1,28.0,30.23,ESE,116,6.0,-999.0,55,-99.99,,,0.00,weatherlink.com 1.10,2013-01-26 22:13:00,
2013-01-26 16:29:00,42.9,28.0,30.22,East,96,8.0,-999.0,55,-99.99,,,0.00,weatherlink.com 1.10,2013-01-26 22:29:00,
2013-01-26 16:43:00,42.7,28.0,30.22,ESE,112,1.0,-999.0,57,-99.99,,,0.00,weatherlink.com 1.10,2013-01-26 22:43:00,
2013-01-26 16:58:00,42.7,27.0,30.22,ESE,113,1.0,-999.0,54,-99.99,,,0.00,weatherlink.com 1.10,2013-01-26 22:58:00,
2013-01-26 17:13:00,42.6,27.0,30.22,SE,134,2.0,-999.0,54,-99.99,,,0.00,weatherlink.com 1.10,2013-01-26 23:13:00,
2013-01-26 17:28:00,42.5,27.0,30.23,SE,138,7.0,-999.0,54,-99.99,,,0.00,weatherlink.com 1.10,2013-01-26 23:28:00,
2013-01-26 17:44:00,42.4,27.0,30.22,ESE,115,12.0,-999.0,54,-99.99,,,0.00,weatherlink.com 1.10,2013-01-26 23:44:00,
2013-01-26 17:58:00,42.3,27.0,30.23,SSE,147,1.0,-999.0,54,-99.99,,,0.00,weatherlink.com 1.10,2013-01-26 23:58:00,
2013-01-26 18:14:00,42.3,27.0,30.23,SE,142,12.0,-999.0,55,-99.99,,,0.00,weatherlink.com 1.10,2013-01-27 00:14:00,
2013-01-26 18:28:00,42.3,27.0,30.24,ESE,123,8.0,-999.0,55,-99.99,,,0.00,weatherlink.com 1.10,2013-01-27 00:28:00,
2013-01-26 18:43:00,42.3,27.0,30.24,SE,130,8.0,-999.0,55,-99.99,,,0.00,weatherlink.com 1.10,2013-01-27 00:43:00,
2013-01-26 18:58:00,42.4,26.0,30.25,SSE,155,2.0,-999.0,52,-99.99,,,0.00,weatherlink.com 1.10,2013-01-27 00:58:00,
2013-01-26 19:14:00,42.3,26.0,30.24,SE,146,7.0,-999.0,53,-99.99,,,0.00,weatherlink.com 1.10,2013-01-27 01:14:00,
2013-01-26 19:28:00,42.0,27.0,30.25,SE,140,2.0,-999.0,55,-99.99,,,0.00,weatherlink.com 1.10,2013-01-27 01:28:00,
2013-01-26 19:44:00,41.8,27.0,30.25,SE,146,12.0,-999.0,57,-99.99,,,0.00,weatherlink.com 1.10,2013-01-27 01:44:00,
2013-01-26 19:58:00,41.6,28.0,30.24,ESE,118,2.0,-999.0,58,-99.99,,,0.00,weatherlink.com 1.10,2013-01-27 01:58:00,
2013-01-26 20:13:00,41.6,28.0,30.24,SE,131,11.0,-999.0,60,-99.99,,,0.00,weatherlink.com 1.10,2013-01-27 02:13:00,
2013-01-26 20:29:00,41.4,29.0,30.25,SSE,157,9.0,-999.0,61,-99.99,,,0.00,weatherlink.com 1.10,2013-01-27 02:29:00,
2013-01-26 20:43:00,41.2,30.0,30.24,SSE,157,5.0,-999.0,64,-99.99,,,0.00,weatherlink.com 1.10,2013-01-27 02:43:00,
2013-01-26 20:58:00,41.1,31.0,30.25,SSE,157,2.0,-999.0,67,-99.99,,,0.00,weatherlink.com 1.10,2013-01-27 02:58:00,
2013-01-26 21:14:00,41.1,31.0,30.24,SSE,153,4.0,-999.0,67,-99.99,,,0.00,weatherlink.com 1.10,2013-01-27 03:14:00,
2013-01-26 21:29:00,41.0,30.0,30.24,SSE,153,2.0,-999.0,66,-99.99,,,0.00,weatherlink.com 1.10,2013-01-27 03:29:00,
2013-01-26 21:44:00,41.2,30.0,30.25,ESE,120,9.0,-999.0,64,-99.99,,,0.00,weatherlink.com 1.10,2013-01-27 03:44:00,
2013-01-26 21:58:00,41.3,29.0,30.24,ESE,121,11.0,-999.0,63,-99.99,,,0.00,weatherlink.com 1.10,2013-01-27 03:58:00,
2013-01-26 22:14:00,41.3,30.0,30.25,SSE,151,2.0,-999.0,64,-99.99,,,0.00,weatherlink.com 1.10,2013-01-27 04:14:00,
2013-01-26 22:29:00,41.2,30.0,30.25,SSE,166,2.0,-999.0,65,-99.99,,,0.00,weatherlink.com 1.10,2013-01-27 04:29:00,
2013-01-26 22:43:00,41.2,31.0,30.25,SE,130,8.0,-999.0,66,-99.99,,,0.00,weatherlink.com 1.10,2013-01-27 04:43:00,
2013-01-26 22:58:00,41.1,31.0,30.25,ESE,123,2.0,-999.0,67,-99.99,,,0.00,weatherlink.com 1.10,2013-01-27 04:58:00,
2013-01-26 23:14:00,41.2,31.0,30.24,SSE,165,4.0,-999.0,68,-99.99,,,0.00,weatherlink.com 1.10,2013-01-27 05:14:00,
2013-01-26 23:28:00,41.2,31.0,30.25,SSE,163,4.0,-999.0,68,-99.99,,,0.00,weatherlink.com 1.10,2013-01-27 05:28:00,
2013-01-26 23:44:00,41.2,32.0,30.24,SE,131,18.0,-999.0,69,-99.99,,,0.00,weatherlink.com 1.10,2013-01-27 05:44:00,
2013-01-26 23:59:00,41.2,32.0,30.24,SE,137,0.0,-999.0,69,-99.99,,,0.00,weatherlink.com 1.10,2013-01-27 05:59:00,